Terminal Aerodrome Forecast
Issued by NWS

Home | Current Version | Previous Version | Text Only | Print | Product List | Glossary On
Versions: 1 2 3 4 5 6 7 8 9 10 11 12 13 14 15 16 17 18 19 20 21 22 23 24 25 26 27 28 29 30 31 32 33 34 35 36 37 38
000
FTUS41 KRNK 282340
TAFBCB
TAF
KBCB 282340Z 0100/0124 12006KT P6SM OVC070
     FM010800 10003KT P6SM SCT007 OVC025
     FM011000 VRB03KT 5SM -SNPL OVC005
     FM011400 00000KT 1 1/2SM -FZRA BR OVC007
     FM011900 19003KT 3/4SM -RA BR OVC004
     FM012300 25003KT 1/2SM FG VV002=

USA.gov is the U.S. government's official web portal to all federal, state and local government web resources and services.